sat.trackr.live / text

‹ back to catalog

STARLINK-2031

NORAD 47648 · 2021-012AE

PAYLOAD ACTIVE UNKNOWN

§ Identity

Operator
Country
US
Launch date
2021-02-16
Launch site
AFETR
Launch vehicle
Mass (kg)
RCS (m²)

Purposes: comms

External: N2YO · Heavens-Above · Gunter

§ Orbital elements

Epoch: 2026-05-25T03:04:38.159616Z

Period
94.01 min
Inclination
53.1612°
Eccentricity
0.0001241
Mean motion
15.31709414 rev/d
Perigee alt
469.9 km
Apogee alt
471.6 km
Semi-major
6,848.8 km
B*
8.4626e-5
RAAN
54.0117°
Arg perigee
95.8187°
Mean anomaly
264.2955°
Rev number
29,201

§ Raw data

STARLINK-20311 47648U 21012AE  26145.12821944  .00002262  00000+0  84626-4 0  99952 47648  53.1612  54.0117 0001241  95.8187 264.2955 15.31709414292015

JSON: /api/v1/satellites/47648 · /tle

For live sub-satellite position, see the globe view (requires WebGL).

§ Visibility from observer

Set your observer location to see the next 7 days of passes ≥ 10°. The values pass through the URL so the page stays shareable.

No JS? Fill the form by hand. The geolocation button needs JavaScript.